Home > Weather > Yonkers > Past weeks

Flag for USA Weather for the Past 2 Weeks in Yonkers, New York, USA

Now
58 °F

Overcast.


Feels Like: 56 °F
Forecast: 45 / 57 °F
Wind: 10 mph from Northeast

Location: Teterboro Airport

Current Time: May 5, 2016 at 4:06:42 PM

Latest Report: May 5, 2016 at 2:51 PM


Visibility: 10 mi

Pressure: 29.63 "Hg

Humidity: 56%

Dew Point: 42 °F

Location of YonkersLocation

Historic Weather in Yonkers — Graph

°F

Yonkers Temperature Yesterday

Maximum temperature yesterday: 52 °F (at 12:51 AM)
Minimum temperature yesterday: 49 °F (at 11:51 PM)
Average temperature yesterday: 51 °F

High & Low Weather Summary for the Past Weeks

 TemperatureHumidityPressure
High82 °F (Apr 22, 2:51 PM)94% (May 3, 2:59 AM)30.22 "Hg (May 3, 2:59 AM)
Low44 °F (May 1, 11:51 PM)8% (Apr 20, 3:51 PM)29.63 "Hg (Apr 26, 2:51 PM)
Average55 °F60%29.95 "Hg
* Reported Apr 20 2:51 PM — May 5 2:51 PM, Yonkers, Weather by CustomWeather, © 2016

Note: Actual official high and low records may vary slightly from our data, if they occured in-between our weather recording intervals... More about our weather records

Advertising

Yonkers Weather History for the Previous 24 Hours

Scroll right to see more
 ConditionsComfort  
Time TempWeatherWind HumidityBarometerVisibility
2:51 PM
Thu, May 5
58 °FOvercast.10 mph56%29.63 "Hg10 mi
1:51 PM57 °FOvercast.8 mph58%29.65 "Hg10 mi
12:51 PM56 °FOvercast.12 mph60%29.67 "Hg10 mi
11:51 AM53 °FOvercast.12 mph64%29.69 "Hg10 mi
10:51 AM52 °FOvercast.7 mph66%29.70 "Hg10 mi
9:51 AM51 °FOvercast.12 mph69%29.70 "Hg10 mi
8:58 AM50 °FFog.9 mph71%29.70 "Hg10 mi
7:51 AM48 °FFog.5 mph80%29.70 "Hg8 mi
6:51 AM47 °FFog.7 mph83%29.68 "Hg6 mi
5:58 AM46 °FFog.6 mph87%29.69 "Hg3 mi
4:51 AM47 °FFog.3 mph86%29.71 "Hg2 mi
3:58 AM46 °FFog.5 mph87%29.70 "Hg2 mi
3:02 AM46 °FFog.5 mph87%29.72 "Hg5 mi
2:51 AM48 °FFog.6 mph80%29.73 "Hg6 mi
1:51 AM49 °FOvercast.6 mph74%29.72 "Hg10 mi
12:51 AM49 °FOvercast.3 mph74%29.73 "Hg10 mi
11:51 PM
Wed, May 4
49 °FMostly cloudy.6 mph77%29.73 "Hg10 mi
10:51 PM50 °FOvercast.5 mph74%29.74 "Hg10 mi
9:51 PM50 °FDrizzle. Overcast.8 mph74%29.75 "Hg10 mi
8:51 PM50 °FDrizzle. Overcast.8 mph83%29.75 "Hg10 mi
7:51 PM51 °FOvercast.7 mph80%29.73 "Hg8 mi
6:51 PM51 °FDrizzle. Fog.6 mph83%29.72 "Hg4 mi
5:51 PM51 °FLight rain. Fog.3 mph83%29.71 "Hg4 mi
4:51 PM50 °FLight rain. Mostly cloudy.6 mph83%29.71 "Hg10 mi
Weather by CustomWeather, © 2016

See weather overviewHow to use our weather pages